Regional Weather Roundup
Issued by NWS

Home | Current Version | Previous Version | Graphics & Text | Print | Product List | Glossary On
Versions: 1 2 3 4 5 6 7 8 9 10 11 12 13 14 15 16 17 18 19 20 21 22 23 24 25 26 27 28 29 30 31 32 33 34 35 36 37 38 39 40 41 42 43 44 45 46 47 48 49 50
000
ASUS45 KCYS 031210
RWRWY

WYOMING REGIONAL WEATHER ROUNDUP
NATIONAL WEATHER SERVICE CHEYENNE WY
500 AM MST TUE MAR 03 2015

NOTE:  "FAIR" INDICATES FEW OR NO CLOUDS BELOW 12,000 FEET
WITH NO SIGNIFICANT WEATHER AND/OR OBSTRUCTIONS TO VISIBILITY.

WYZ001-031300-
YELLOWSTONE NATIONAL PARK

CITY           SKY/WX    TMP DP  RH WIND       PRES   REMARKS
LK YELLOWSTONE   N/A      4  -2  76 VRB6      29.71R WCI  -7
6HR MIN TEMP:   4; 6HR MAX TEMP:  18; 6HR PCP:  0.05;

W YELLOWSTONE  NOT AVBL

$$
WYZ002>013-054>058-071-098>099-031300-
NORTHERN WYOMING

CITY           SKY/WX    TMP DP  RH WIND       PRES   REMARKS
JACKSON        CLOUDY    25  23  93 S14       29.64R WCI  13
CODY           CLOUDY    10   5  79 N13G23    29.93R WCI  -5
GREYBULL       CLOUDY    17   1  49 NW24G31   29.90R WCI  -1
6HR MIN TEMP:  17; 6HR MAX TEMP:  27; 6HR PCP: TRACE;

WORLAND        CLOUDY    16   5  62 NW18      29.93R WCI   0
6HR MIN TEMP:  16; 6HR MAX TEMP:  26; 6HR PCP: TRACE;

SHERIDAN       LGT SNOW  12   7  80 NW17      30.02S WCI  -5
6HR MIN TEMP:  12; 6HR MAX TEMP:  22; 6HR PCP:  0.05;

BUFFALO        LGT SNOW  10   6  84 N25G35    29.92R FOG     WCI -11
6HR MIN TEMP:  10; 6HR MAX TEMP:  22; 6HR PCP: TRACE;

GILLETTE       LGT SNOW   9   5  84 N18       29.95R FOG     WCI -10
6HR MIN TEMP:   9; 6HR MAX TEMP:  24; 6HR PCP:  0.04;

HULETT         LGT SNOW  12   9  85 N9        29.95R WCI   0
NEWCASTLE      FAIR      14   3  62 N24G35    29.86R WCI  -5

$$
WYZ014>020-022>026-101>103-031300-
CENTRAL WYOMING

CITY           SKY/WX    TMP DP  RH WIND       PRES   REMARKS
BIG PINEY      MOCLDY    15  11  83 CALM      29.70R
6HR MIN TEMP:  14; 6HR MAX TEMP:  24;

PINEDALE       CLOUDY    21  18  86 S10G16    29.70R WCI  10
DUBOIS         LGT SNOW  14  10  85 SE13      29.66R WCI   0
LANDER         SNOW      14  11  87 NE5       29.83R VSB 1/2 WCI   6
6HR MIN TEMP:  14; 6HR MAX TEMP:  25; 6HR PCP:  0.26;

RIVERTON       LGT SNOW  13   8  81 NE14      29.83R WCI  -2
6HR MIN TEMP:  13; 6HR MAX TEMP:  25; 6HR PCP:  0.02;

CASPER         LGT SNOW  11   6  81 NE13      29.90R WCI  -4
6HR MIN TEMP:  11; 6HR MAX TEMP:  26; 6HR PCP:  0.11;

DOUGLAS        LGT SNOW  13   9  84 N17       29.90R FOG     WCI  -4
6HR MIN TEMP:  13; 6HR MAX TEMP:  26; 6HR PCP:  0.01;


$$
WYZ021-027>030-104>119-031300-
SOUTHERN WYOMING

CITY           SKY/WX    TMP DP  RH WIND       PRES   REMARKS
EVANSTON       LGT SNOW  23  21  92 SW13      29.71F FOG     WCI  11
6HR MIN TEMP:  19; 6HR MAX TEMP:  26; 6HR PCP: TRACE;

KEMMERER       LGT SNOW  21  21 100 W7        29.70S WCI  13
FORT BRIDGER   FAIR      22  21  97 SW10      29.74S WCI  11
ROCK SPRINGS   CLOUDY    19  17  92 E15       29.75R WCI   5
6HR MIN TEMP:  19; 6HR MAX TEMP:  28; 6HR PCP: TRACE;

DIXON          CLOUDY    26  22  85 NW8       29.76R WCI  17
RAWLINS        LGT SNOW  15   9  76 N12       29.75R WCI   2
6HR MIN TEMP:  15; 6HR MAX TEMP:  33; 6HR PCP:  0.10;

SARATOGA       FLURRIES  19  18  93 NW10      29.71R WCI   8
LARAMIE        CLOUDY    18  15  88 NW18      29.67R WCI   2
6HR MIN TEMP:  17; 6HR MAX TEMP:  33; 6HR PCP:  0.03;

CHEYENNE       LGT SNOW  20  16  84 N22G33    29.72R VSB 3/4 WCI   3
6HR MIN TEMP:  20; 6HR MAX TEMP:  42; 6HR PCP: TRACE;

TORRINGTON     LGT SNOW  21  15  78 N24G31    29.82R WCI   4
6HR MIN TEMP:  22; 6HR MAX TEMP:  30; 6HR PCP: TRACE;

PINE BLUFFS    CLOUDY    27  23  86 N21       29.73R WCI  13

$$


USA.gov is the U.S. government's official web portal to all federal, state and local government web resources and services.